IRIDIUM 33 DEB, 34376

Orbit data source: Space-Track

IRIDIUM 33 DEB, 34376 is space debris in LEO originally from a launch on Sun, 14 Sep 1997 UTC launched from the Tyuratam Missile And Space Complex (TTMTR). The debris from Iridium 33, an American commercial communications satellite, has been tracked extensively since its accidental collision with the defunct Russian satellite Cosmos 2251 in 2009. This event, occurring at high speed in low Earth orbit (LEO), generated thousands of pieces of space debris, significantly increasing the risk of further collisions. The Iridium 33 debris cloud has impacted space traffic management and orbital debris mitigation strategies, making it a subject of ongoing study in space situational awareness.

Loading next visibility...
Identifier
34376, 1997-051FU
Orbit
LEO
Country
Flag of USUS
Related business
Manufacturer
Unknown
Mission
Spacecraft
Bus & Motor
Unknown
Mass
Unknown
Launch date (UTC)
1997-09-14 (29 years ago)
Launch vehicle
Unknown
Launch site
Tyuratam Missile And Space Complex (TTMTR)
Object type
Payload
Rocket body
Debris
Shape & HBR
Unknown shape, 0.050 m
Radar Cross Section
Small (<0.1 m²)

Expand to show TLE details & history
Last TLE update: 2 days ago

TLE from 2 days ago
0 IRIDIUM 33 DEB
1 34376U 97051FU  26266.39511096  .00005495  00000-0  96924-3 0  9997
2 34376  86.2917 237.9313 0021003 281.0384  78.8468 14.67205042921754
Epoch: 2026-09-23T09:28Z
TLE epoch observation values (Epoch: 2026-09-23T09:28:57.586Z)
Latitude
-0.00002°
Longitude
93.4445°
Altitude
670.267 km
Speed
7.523 km/s
True Right ascension
15h 51m 43s
True Declination
0° 00' 00"
Sunlit
Object was in daylight at epoch
Visualization orbit readout
Latitude
Unknown
Longitude
Unknown
Altitude
Unknown
Speed
Unknown
Apparent Right ascension
Unknown
Apparent Declination
Unknown
Sunlit
N/A
Visualization observer readout
Local Sidereal Time
15:04:22
Azimuth
Unknown
Elevation
Unknown
Doppler factor
Unknown
Orbital elements
Apogee altitude
681.722 km
Perigee altitude
652.128 km
Semi-major axis
7,045.062 km
Eccentricity
0.0021
Inclination
86.2917°
RAAN
237.9313°
Arg. of periapsis
281.0384°
True anomaly
79.08305°
Mean anomaly
78.8468°
Eccentric anomaly
78.96491°
Mean motion
3.67042 °/min
Orbital period
98.08 mins
BSTAR
0.00096924

Documentation

Showing up to 5 results
|